Current Version              Previous Version:    01  02  03  04  05  06  07  08  09  10  11  12  13  14  15  16  17  18  19  20  21  22  23  24  25  26  27  28  29  30  
   31  32  33  34  35  36  37  38  39  40  41  42  43  44  45  46  47  48  49  50  51  52  53  54  55  56  57  58  59  60  

[Printable]
831
ASUS44 KLUB 211810
RWRTX
WEST TEXAS WEATHER ROUNDUP
NATIONAL WEATHER SERVICE LUBBOCK TX
1200 PM CST SUN DEC 21 2014

NOTE: "FAIR" INDICATES FEW OR NO CLOUDS BELOW 12,000 FEET WITH NO
SIGNIFICANT WEATHER AND/OR OBSTRUCTIONS TO VISIBILITY.

TXZ004-006>008-010-012-014-016-OKZ002-211900-
TEXAS PANHANDLE/OKLAHOMA PANHANDLE

CITY           SKY/WX    TMP DP  RH WIND       PRES   REMARKS
AMARILLO       SUNNY     50  26  39 W7        29.78F
BORGER         SUNNY     46  28  49 VRB6      29.77F
CANADIAN       CLOUDY    46  41  83 S12       29.80F
DALHART        MOSUNNY   54  28  36 SW6       29.75F
DUMAS          SUNNY     50  25  36 W3        29.75F
GUYMON         SUNNY     45  35  68 S7        29.73F
HEREFORD       MOSUNNY   58  28  31 W9        29.80F
PAMPA          SUNNY     47  32  55 SW7       29.78F
PERRYTON       MOSUNNY   47  38  70 S14       29.75F
$$

TXZ026-029-035-045-048-211900-
SOUTHERN PANHANDLE/SOUTH PLAINS/ROLLING PLAINS

CITY           SKY/WX    TMP DP  RH WIND       PRES   REMARKS
CHILDRESS      SUNNY     56  38  50 SW16      29.82F
SEMINOLE       SUNNY     60  31  33 W15G21    29.91F
LUBBOCK        MOSUNNY   60  26  27 W26G35    29.83F
PLAINVIEW      SUNNY     55  29  37 W17       29.80F
SNYDER         MOSUNNY   55  41  60 S16       29.88F
$$

TXZ052-054-060>062-072-078-127-140-154-169-211900-
PERMIAN BASIN/CONCHO VALLEY/BIG COUNTRY/EDWARDS PLATEAU

CITY           SKY/WX    TMP DP  RH WIND       PRES   REMARKS
ABILENE        MOSUNNY   54  43  66 S23       29.92F
BIG SPRING     SUNNY     59  40  49 S16       29.92F
BRADY          CLOUDY    50  45  81 S13       29.99F
BROWNWOOD      CLOUDY    50  45  81 S14G21    29.98F
JUNCTION       CLOUDY    50  45  83 SW7       30.02F
MIDLAND        SUNNY     57  33  40 SW16      29.92F
ODESSA         SUNNY     56  31  38 W16       29.93F
SAN ANGELO     PTSUNNY   54  43  66 S13       29.97F
SONORA         CLOUDY    50  46  87 SW10      30.06F
SWEETWATER     SUNNY     57  41  56 S22       29.92F
WINK           SUNNY     56  31  38 SW13      29.92F
$$

TXZ055-058-074-075-080-082-211900-
FAR WEST/SOUTHWEST MOUNTAINS/TRANS PECOS

CITY           SKY/WX    TMP DP  RH WIND       PRES   REMARKS
ALPINE         SUNNY     60  23  24 W18G25    30.07F
DRYDEN           N/A     58  45  62 S10       29.99F
EL PASO        MOSUNNY   54  29  38 SW14      30.04F
FORT STOCKTON  SUNNY     65  20  17 W7        29.96F
MARFA          SUNNY     57  25  28 W16G23    30.07F
PECOS          SUNNY     64  29  27 W17       29.95F
PRESIDIO       FAIR      57  32  38 SE5       30.05F
$$

TXZ014-016-019-021>030-083-211900
TEXAS TECH WEST TEXAS MESONET/TEXAS PANHANDLE/NORTHERN SOUTH PLAINS

CITY           SKY/WX    TMP DP  RH WIND       PRES   REMARKS
ABERNATHY 5ENE   N/A     56  27  32 W18       29.83F
AMARILLO 9NNE    N/A     48  26  42 W6        29.77F
AMARILLO 7SSE    N/A     51  32  47 W6        29.78F
AMHERST 1NE      N/A     56  26  32 W17       29.81F
BOOTLEG 11WNW    N/A     56  23  28 SW9       29.79F
CANADIAN 6E      N/A     44  40  86 S9        29.77F
CAPROCK CYN SP   N/A     56  31  37 W6        29.79F
CHILDRESS 2NNE   N/A     56  38  52 SW14      29.81F
CLARENDON 2WSW   N/A     48  32  54 S7        29.79F
CLAUDE 12SW      N/A     48  30  49 S5        29.77F
DIMMITT 2NE      N/A     55  28  35 SW13      29.79F
FLOYDADA 2NNE    N/A     55  29  36 SW17      29.81F
FRIONA 2NE       N/A     56  23  27 W9        29.80F
GOODLETT 3W      N/A     57  42  58 S18       29.81F
HART 3N          N/A     53  31  43 W15       29.79F
HEREFORD 2NW     N/A     56  25  29 SW12      29.79F
MCLEAN 1E        N/A     45  39  79 S7        29.78F
MEMPHIS 1NE      N/A     53  37  54 SW9       29.81F
MULESHOE 2SSW    N/A     57  25  29 W17       29.82F
OLTON 6S         N/A     56  27  32 W16       29.80F
PALO DURO SP     N/A     52  31  44 W7        29.79F
PAMPA 2E         N/A     46  36  67 S8        29.76F
PLAINVIEW 1S     N/A     55  31  40 W15       29.80F
SILVERTON 7ESE   N/A     55  32  42 SW12      29.80F
TULIA 2ENE       N/A     55  32  42 W13       29.78F
TURKEY 2WSW      N/A     55  32  41 SW13      29.79F
UMBARGER 3NNE    N/A     55  28  34 W10       29.78F
$$

TXZ033>036-039>041-045>048-211900
TEXAS TECH WEST TEXAS MESONET/SOUTH PLAINS

CITY           SKY/WX    TMP DP  RH WIND       PRES   REMARKS
AIKEN 3WSW       N/A     56  31  37 SW17      29.81F
ANTON 6SSW       N/A     57  29  33 W25       29.82F
BROWNFIELD 2S    N/A     59  32  36 SW13      29.86F
DENVR CTY 7WNW   N/A     61  22  22 W24       29.88F
GAIL 2ESE        N/A     56  39  53 SW14      29.87F
LAMESA 2SE       N/A     55  37  49 SW15      29.89F
LEVELLAND 4S     N/A     61  25  25 W24       29.83F
LUBBOCK 3WNW     N/A     61  26  26 W17       29.84F
MORTON 1ENE      N/A     58  25  27 W21G30    29.83F
ODONNELL 1N      N/A     54  34  46 SW17      29.87F
PLAINS 3N        N/A     61  24  23 W22       29.87F
RALLS 1SE        N/A     56  32  40 SW20      29.84F
REESE CENTER     N/A     59  25  27 W25       29.83F
SEAGRAVES 1SW    N/A     63  28  26 W18G28    29.87F
SEMINOLE 2NNE    N/A     60  28  29 W15       29.89F
SLATON 2NE       N/A     57  31  37 SW18      29.85F
SNYDER 3E        N/A     56  42  58 S20       29.86F
SUNDOWN 8SW    LGT RAIN  61  24  24 W24       29.85F
TAHOKA 3NNE      N/A     58  33  39 SW16      29.85F
WOLFFORTH 6SSW   N/A     60  30  32 SW15      29.85F
$$

TXZ031-032-036>038-042>044-211900-
TEXAS TECH WEST TEXAS MESONET/ROLLING PLAINS

CITY           SKY/WX    TMP DP  RH WIND       PRES   REMARKS
ASPERMONT 3NE    N/A     60  42  52 S16       29.85F
FLUVANNA 3WNW    N/A     55  40  57 S17       29.87F
GRAHAM 5SSW      N/A     56  35  46 SW12      29.86F
GUTHRIE 10WSW    N/A     60  38  44 SW18G28   29.82F
HASKELL 1NW      N/A     58  42  55 S20       29.86F
JAYTON 1SSE      N/A     59  40  50 SW17      29.84F
KNOX CITY 3NW    N/A     59  42  53 S17       29.85F
LK A HENRY 1NW   N/A     57  40  53 SW18      29.84F
NORTHFIELD 1S    N/A     58  34  40 SW13      29.81F
ODELL 4ENE       N/A     53  46  77 S15       29.84F
POST 1NE         N/A     59  35  40 SW13      29.86S
SEYMOUR 3NW      N/A     54  45  72 S17       29.87F
SPUR 1W          N/A     58  37  45 SW15      29.84F
WHITE RVR 6NE    N/A     57  35  43 SW17      29.83F
$$

TXZ052-054-060>062-072-078-127-140-154-169-211900-
TEXAS TECH WEST TEXAS MESONET/PERMIAN BASIN/
CONCHO VALLEY/BIG COUNTRY/EDWARDS PLATEAU

CITY           SKY/WX    TMP DP  RH WIND       PRES   REMARKS
COYANOSA 2N      N/A     64  29  26 W10       29.95F
JUNCTION 1SSW    N/A     50  45  83 SW10      30.02F
MERTZON 3NNE     N/A     54  42  66 S17       29.97F
SAN ANGELO 7NW   N/A     53  42  65 S14       29.96F
STRLNG CT 4WSW   N/A     58  40  52 S18       29.93F
ST LAWRNCE 5SW   N/A     56  36  46 SW17      29.93F
SWEETWATR 11SW   N/A     56  42  58 S15       29.90F
WALL 1E          N/A     53  43  68 S18       29.98F
$$

TXZ055-058-074-075-080-082-211900-
TEXAS TECH WEST TEXAS MESONET/FAR WEST/SOUTHWEST MOUNTAINS/TRANS PECOS

CITY           SKY/WX    TMP DP  RH WIND       PRES   REMARKS
PRSMN GAP BBNP   N/A     62  40  43 S6        30.01F
$$